This is the latest recevied weather packets stored in our database for station/object F4NFR-13. If no packets are shown the sender has not sent any weather packets the latest 10 day(s).
| Time | Temp. | Humidity | Pressure | Rain* | Wind** | Luminosity | Snow |
|---|---|---|---|---|---|---|---|
| 1777975383 | 13.89° C | 64% | 1013 hPa | 0 mm | - | 0 W/m² | - |
| 1777975080 | 13.89° C | 67% | 1013 hPa | 0 mm | - | - | - |
| 1777974778 | 13.89° C | 68% | 1013 hPa | 0 mm | - | - | - |
| 1777974476 | 12.78° C | 68% | 1012.7 hPa | 0 mm | - | 0 W/m² | - |
| 1777974173 | 13.89° C | 68% | 1012.7 hPa | 0 mm | - | 0 W/m² | - |
| 1777973870 | 12.78° C | 69% | 1013 hPa | 0 mm | - | 0 W/m² | - |
| 1777973568 | 12.78° C | 69% | 1013 hPa | 0 mm | - | 0 W/m² | - |
| 1777973266 | 12.78° C | 70% | 1013 hPa | 0 mm | - | 0 W/m² | - |
| 1777972964 | 12.78° C | 72% | 1013 hPa | 0 mm | - | 4 W/m² | - |
| 1777972661 | 12.78° C | 72% | 1013 hPa | 0 mm | - | 0 W/m² | - |
| 1777972056 | 12.22° C | 73% | 1013 hPa | 0 mm | - | 0 W/m² | - |
| 1777971754 | 12.22° C | 74% | 1013 hPa | 0 mm | - | 269 W/m² | - |
| 1777971451 | 12.22° C | 72% | 1013 hPa | 0 mm | - | 0 W/m² | - |
| 1777971149 | 12.22° C | 74% | 1013 hPa | 0 mm | - | 0 W/m² | - |
| 1777970846 | 12.22° C | 75% | 1013 hPa | 0 mm | - | 0 W/m² | - |
| 1777970543 | 12.22° C | 74% | 1013 hPa | 0 mm | - | 0 W/m² | - |
| 1777970241 | 12.22° C | 76% | 1013 hPa | 0 mm | - | 0 W/m² | - |
| 1777969939 | 11.11° C | 76% | 1013 hPa | 0 mm | - | 296 W/m² | - |
| 1777969637 | 11.11° C | 77% | 1013 hPa | 0 mm | - | 267 W/m² | - |
| 1777969334 | 11.11° C | 77% | 1013 hPa | 0 mm | - | 251 W/m² | - |
| 1777969032 | 11.11° C | 77% | 1013 hPa | 0 mm | - | 252 W/m² | - |
| 1777968729 | 11.11° C | 77% | 1013.4 hPa | 0 mm | - | 243 W/m² | - |
| 1777968427 | 11.11° C | 77% | 1013.4 hPa | 0 mm | - | 243 W/m² | - |
| 1777968124 | 11.11° C | 77% | 1013.4 hPa | 0 mm | - | 228 W/m² | - |
| 1777967822 | 11.11° C | 78% | 1013.4 hPa | 0 mm | - | 212 W/m² | - |
* Rain latest hour (hover to see other rain measurements)
** Current wind speed in m/s (hover to see current wind gust speed)